TimeEDT,TemperatureF,Dew PointF,Humidity,Sea Level PressureIn,VisibilityMPH,Wind Direction,Wind SpeedMPH,Gust SpeedMPH,PrecipitationIn,Events,Conditions,WindDirDegrees,DateUTC
12:54 AM,52.0,48.9,89,29.96,-9999.0,North,-9999.0,-,N/A,,Unknown,0,2011-10-05 04:54:00
1:54 AM,52.0,48.0,86,29.96,-9999.0,North,-9999.0,-,N/A,,Unknown,0,2011-10-05 05:54:00
2:54 AM,51.1,46.9,86,29.95,-9999.0,North,-9999.0,-,N/A,,Unknown,0,2011-10-05 06:54:00
3:54 AM,51.1,46.0,83,29.96,-9999.0,North,-9999.0,-,N/A,,Unknown,0,2011-10-05 07:54:00
4:54 AM,50.0,45.0,83,29.96,-9999.0,North,-9999.0,-,N/A,,Unknown,0,2011-10-05 08:54:00
5:54 AM,50.0,45.0,83,29.98,-9999.0,North,-9999.0,-,N/A,,Unknown,0,2011-10-05 09:54:00
6:54 AM,50.0,45.0,83,29.98,-9999.0,North,-9999.0,-,N/A,,Unknown,0,2011-10-05 10:54:00
7:54 AM,50.0,44.1,80,29.99,-9999.0,North,-9999.0,-,N/A,,Unknown,0,2011-10-05 11:54:00
8:54 AM,51.1,44.1,77,29.99,-9999.0,North,-9999.0,-,N/A,,Unknown,0,2011-10-05 12:54:00
9:54 AM,52.0,44.1,74,30.00,-9999.0,North,-9999.0,-,N/A,,Unknown,0,2011-10-05 13:54:00
10:54 AM,54.0,44.1,69,30.00,-9999.0,North,-9999.0,-,N/A,,Unknown,0,2011-10-05 14:54:00
11:54 AM,55.0,42.1,62,30.01,-9999.0,North,-9999.0,-,N/A,,Unknown,0,2011-10-05 15:54:00
12:54 PM,54.0,39.0,57,30.03,-9999.0,North,-9999.0,-,N/A,,Unknown,0,2011-10-05 16:54:00
1:54 PM,54.0,35.1,49,30.04,-9999.0,North,-9999.0,-,N/A,,Unknown,0,2011-10-05 17:54:00
2:54 PM,54.0,33.1,45,30.06,-9999.0,North,-9999.0,-,N/A,,Unknown,0,2011-10-05 18:54:00
3:54 PM,54.0,33.1,45,30.08,-9999.0,North,-9999.0,-,N/A,,Unknown,0,2011-10-05 19:54:00
4:54 PM,52.0,30.0,43,30.11,-9999.0,North,-9999.0,-,N/A,,Unknown,0,2011-10-05 20:54:00
5:54 PM,51.1,27.0,39,30.15,-9999.0,North,-9999.0,-,N/A,,Unknown,0,2011-10-05 21:54:00
6:54 PM,48.9,25.0,39,30.17,-9999.0,North,-9999.0,-,N/A,,Unknown,0,2011-10-05 22:54:00
7:54 PM,46.9,27.0,46,30.18,-9999.0,North,-9999.0,-,N/A,,Unknown,0,2011-10-05 23:54:00
8:54 PM,42.1,30.9,65,30.19,-9999.0,North,-9999.0,-,N/A,,Unknown,0,2011-10-06 00:54:00
9:54 PM,39.9,32.0,73,30.19,-9999.0,North,-9999.0,-,N/A,,Unknown,0,2011-10-06 01:54:00
10:54 PM,37.0,33.1,86,30.21,-9999.0,North,-9999.0,-,N/A,,Unknown,0,2011-10-06 02:54:00
11:54 PM,35.1,33.1,92,30.22,-9999.0,North,-9999.0,-,N/A,,Unknown,0,2011-10-06 03:54:00